Location: Den�e
(47.3830°N, 0.6000°W)
Time: 21:25:54
(UTC+01:00)

ISS - Visible Passes

Search period start: 02 December 2024 00:00
Search period end: 12 December 2024 00:00
Orbit: 411 x 421 km, 51.6° (Epoch: 02 December)

Date Brightness Start Highest point End Pass type
(mag) Time Alt. Az. Time Alt. Az. Time Alt. Az.
02 Dec -3.7 17:43:07 10° WNW 17:46:32 84° SSW 17:49:54 10° ESE visible
02 Dec -0.9 19:20:39 10° W 19:22:51 16° SW 19:25:03 10° S visible
03 Dec -1.4 18:31:39 10° W 18:34:29 25° SW 18:37:19 10° SSE visible
04 Dec -2.1 17:42:51 10° WNW 17:46:02 39° SW 17:49:13 10° SE visible
05 Dec -0.2 18:32:41 10° WSW 18:33:40 11° SW 18:34:38 10° SSW visible
06 Dec -0.6 17:42:54 10° W 17:45:14 18° SW 17:47:34 10° S visible
